This is the latest recevied weather packets stored in our database for station/object WP3OF-3. If no packets are shown the sender has not sent any weather packets the latest 10 day(s).
| Time | Temp. | Humidity | Pressure | Rain* | Wind** | Luminosity | Snow |
|---|---|---|---|---|---|---|---|
| 1778160963 | 28.33° C | 69% | 1020.6 hPa | 0 mm | - | - | - |
| 1778160661 | 28.33° C | 67% | 1020.3 hPa | 0 mm | - | - | - |
| 1778160357 | 28.33° C | 65% | 1020.5 hPa | 0 mm | - | - | - |
| 1778160054 | 28.33° C | 67% | 1020.5 hPa | 0 mm | - | - | - |
| 1778159751 | 27.78° C | 71% | 1020.3 hPa | 0 mm | - | - | - |
| 1778159448 | 27.78° C | 68% | 1020.3 hPa | 0 mm | - | - | - |
| 1778159145 | 27.22° C | 70% | 1020.6 hPa | 0 mm | - | - | - |
| 1778158843 | 26.67° C | 72% | 1020.5 hPa | 0 mm | - | - | - |
| 1778158541 | 26.11° C | 75% | 1020.5 hPa | 0 mm | - | - | - |
| 1778158238 | 25.56° C | 76% | 1020.5 hPa | 0 mm | - | - | - |
| 1778157934 | 25.56° C | 76% | 1020.3 hPa | 0 mm | - | - | - |
| 1778157633 | 23.89° C | 79% | 1020.2 hPa | 0 mm | - | - | - |
| 1778157330 | 23.33° C | 88% | 1020.3 hPa | 0 mm | - | - | - |
| 1778157027 | 23.33° C | 90% | 1020.1 hPa | 0 mm | - | - | - |
| 1778156722 | 22.78° C | 91% | 1019.9 hPa | 0 mm | - | - | - |
| 1778156419 | 22.78° C | 92% | 1019.9 hPa | 0 mm | - | - | - |
| 1778156114 | 22.78° C | 93% | 1020 hPa | 0 mm | - | - | - |
| 1778155810 | 22.22° C | 94% | 1019.9 hPa | 0 mm | - | - | - |
| 1778155506 | 22.22° C | 94% | 1019.8 hPa | 0 mm | - | - | - |
| 1778155203 | 21.67° C | 95% | 1019.8 hPa | 0 mm | - | - | - |
| 1778154900 | 21.67° C | 95% | 1019.6 hPa | 0 mm | - | - | - |
| 1778154595 | 21.67° C | 95% | 1019.8 hPa | 0 mm | - | - | - |
| 1778154292 | 21.11° C | 95% | 1019.5 hPa | 0 mm | - | - | - |
| 1778153989 | 21.11° C | 95% | 1019.4 hPa | 0 mm | - | - | - |
| 1778153686 | 21.11° C | 95% | 1019.4 hPa | 0 mm | - | - | - |
* Rain latest hour (hover to see other rain measurements)
** Current wind speed in m/s (hover to see current wind gust speed)